Year,Month,Day,Hour,Minute,Value (Times are PST for temperature in C)
2013,04,30,00,00,6.60
2013,04,30,00,01,6.60
2013,04,30,00,02,6.60
2013,04,30,00,03,6.60
2013,04,30,00,04,6.60
2013,04,30,00,05,6.50
2013,04,30,00,06,6.50
2013,04,30,00,07,6.50
2013,04,30,00,08,6.40
2013,04,30,00,09,6.40
2013,04,30,00,10,6.40
2013,04,30,00,11,6.30
2013,04,30,00,12,6.30
2013,04,30,00,13,6.20
2013,04,30,00,14,6.10
2013,04,30,00,15,6.10
2013,04,30,00,16,6.00
2013,04,30,00,17,5.90
2013,04,30,00,18,5.80
2013,04,30,00,19,5.80
2013,04,30,00,20,5.70
2013,04,30,00,21,5.70
2013,04,30,00,22,5.70
2013,04,30,00,23,5.60
2013,04,30,00,24,5.60
2013,04,30,00,25,5.50
2013,04,30,00,26,5.50
2013,04,30,00,27,5.40
2013,04,30,00,28,5.40
2013,04,30,00,29,5.40
2013,04,30,00,30,5.30
2013,04,30,00,31,5.30
2013,04,30,00,32,5.30
2013,04,30,00,33,5.30
2013,04,30,00,34,5.30
2013,04,30,00,35,5.20
2013,04,30,00,36,5.20
2013,04,30,00,37,5.20
2013,04,30,00,38,5.20
2013,04,30,00,39,5.20
2013,04,30,00,40,5.20
2013,04,30,00,41,5.20
2013,04,30,00,42,5.20
2013,04,30,00,43,5.20
2013,04,30,00,44,5.20
2013,04,30,00,45,5.20
2013,04,30,00,46,5.20
2013,04,30,00,47,5.20
2013,04,30,00,48,5.20
2013,04,30,00,49,5.20
2013,04,30,00,50,5.10
2013,04,30,00,51,5.10
2013,04,30,00,52,5.10
2013,04,30,00,53,5.10
2013,04,30,00,54,5.10
2013,04,30,00,55,5.10
2013,04,30,00,56,5.10
2013,04,30,00,57,5.10
2013,04,30,00,58,5.10
2013,04,30,00,59,5.10
2013,04,30,01,00,5.10
2013,04,30,01,01,5.10
2013,04,30,01,02,5.10
2013,04,30,01,03,5.10
2013,04,30,01,04,5.00
2013,04,30,01,05,5.00
2013,04,30,01,06,5.00
2013,04,30,01,07,5.00
2013,04,30,01,08,5.00
2013,04,30,01,09,5.00
2013,04,30,01,10,5.00
2013,04,30,01,11,5.00
2013,04,30,01,12,5.00
2013,04,30,01,13,5.00
2013,04,30,01,14,5.00
2013,04,30,01,15,5.00
2013,04,30,01,16,5.00
2013,04,30,01,17,5.00
2013,04,30,01,18,5.00
2013,04,30,01,19,4.90
2013,04,30,01,20,4.90
2013,04,30,01,21,4.90
2013,04,30,01,22,4.90
2013,04,30,01,23,4.90
2013,04,30,01,24,4.90
2013,04,30,01,25,4.90
2013,04,30,01,26,4.90
2013,04,30,01,27,4.90
2013,04,30,01,28,4.90
2013,04,30,01,29,4.90
2013,04,30,01,30,4.80
2013,04,30,01,31,4.80
2013,04,30,01,32,4.80
2013,04,30,01,33,4.80
2013,04,30,01,34,4.80
2013,04,30,01,35,4.80
2013,04,30,01,36,4.80
2013,04,30,01,37,4.80
2013,04,30,01,38,4.80
2013,04,30,01,39,4.80
2013,04,30,01,40,4.80
2013,04,30,01,41,4.80
2013,04,30,01,42,4.80
2013,04,30,01,43,4.80
2013,04,30,01,44,4.80
2013,04,30,01,45,4.80
2013,04,30,01,46,4.80
2013,04,30,01,47,4.80
2013,04,30,01,48,4.80
2013,04,30,01,49,4.90
2013,04,30,01,50,4.90
2013,04,30,01,51,4.90
2013,04,30,01,52,4.90
2013,04,30,01,53,4.90
2013,04,30,01,54,4.90
2013,04,30,01,55,4.90
2013,04,30,01,56,4.80
2013,04,30,01,57,4.80
2013,04,30,01,58,4.80
2013,04,30,01,59,4.80
2013,04,30,02,00,4.80
2013,04,30,02,01,4.80
2013,04,30,02,02,4.80
2013,04,30,02,03,4.70
2013,04,30,02,04,4.70
2013,04,30,02,05,4.60
2013,04,30,02,06,4.60
2013,04,30,02,07,4.60
2013,04,30,02,08,4.50
2013,04,30,02,09,4.50
2013,04,30,02,10,4.50
2013,04,30,02,11,4.40
2013,04,30,02,12,4.40
2013,04,30,02,13,4.40
2013,04,30,02,14,4.40
2013,04,30,02,15,4.40
2013,04,30,02,16,4.30
2013,04,30,02,17,4.30
2013,04,30,02,18,4.30
2013,04,30,02,19,4.20
2013,04,30,02,20,4.20
2013,04,30,02,21,4.20
2013,04,30,02,22,4.10
2013,04,30,02,23,4.10
2013,04,30,02,24,4.00
2013,04,30,02,25,4.00
2013,04,30,02,26,3.90
2013,04,30,02,27,3.80
2013,04,30,02,28,3.80
2013,04,30,02,29,3.80
2013,04,30,02,30,3.80
2013,04,30,02,31,3.70
2013,04,30,02,32,3.70
2013,04,30,02,33,3.70
2013,04,30,02,34,3.70
2013,04,30,02,35,3.60
2013,04,30,02,36,3.60
2013,04,30,02,37,3.60
2013,04,30,02,38,3.60
2013,04,30,02,39,3.60
2013,04,30,02,40,3.60
2013,04,30,02,41,3.50
2013,04,30,02,42,3.50
2013,04,30,02,43,3.50
2013,04,30,02,44,3.50
2013,04,30,02,45,3.50
2013,04,30,02,46,3.50
2013,04,30,02,47,3.50
2013,04,30,02,48,3.50
2013,04,30,02,49,3.40
2013,04,30,02,50,3.40
2013,04,30,02,51,3.40
2013,04,30,02,52,3.40
2013,04,30,02,53,3.30
2013,04,30,02,54,3.30
2013,04,30,02,55,3.30
2013,04,30,02,56,3.30
2013,04,30,02,57,3.30
2013,04,30,02,58,3.20
2013,04,30,02,59,3.20
2013,04,30,03,00,3.20
2013,04,30,03,01,3.20
2013,04,30,03,02,3.20
2013,04,30,03,03,3.10
2013,04,30,03,04,3.10
2013,04,30,03,05,3.10
2013,04,30,03,06,3.00
2013,04,30,03,07,3.00
2013,04,30,03,08,3.00
2013,04,30,03,09,2.90
2013,04,30,03,10,2.90
2013,04,30,03,11,2.90
2013,04,30,03,12,2.80
2013,04,30,03,13,2.80
2013,04,30,03,14,2.80
2013,04,30,03,15,2.80
2013,04,30,03,16,2.80
2013,04,30,03,17,2.80
2013,04,30,03,18,2.70
2013,04,30,03,19,2.70
2013,04,30,03,20,2.70
2013,04,30,03,21,2.70
2013,04,30,03,22,2.60
2013,04,30,03,23,2.60
2013,04,30,03,24,2.60
2013,04,30,03,25,2.60
2013,04,30,03,26,2.60
2013,04,30,03,27,2.60
2013,04,30,03,28,2.60
2013,04,30,03,29,2.60
2013,04,30,03,30,2.60
2013,04,30,03,31,2.60
2013,04,30,03,32,2.60
2013,04,30,03,33,2.50
2013,04,30,03,34,2.50
2013,04,30,03,35,2.40
2013,04,30,03,36,2.40
2013,04,30,03,37,2.40
2013,04,30,03,38,2.30
2013,04,30,03,39,2.30
2013,04,30,03,40,2.30
2013,04,30,03,41,2.30
2013,04,30,03,42,2.30
2013,04,30,03,43,2.20
2013,04,30,03,44,2.20
2013,04,30,03,45,2.20
2013,04,30,03,46,2.20
2013,04,30,03,47,2.20
2013,04,30,03,48,2.20
2013,04,30,03,49,2.20
2013,04,30,03,50,2.20
2013,04,30,03,51,2.20
2013,04,30,03,52,2.20
2013,04,30,03,53,2.10
2013,04,30,03,54,2.10
2013,04,30,03,55,2.10
2013,04,30,03,56,2.10
2013,04,30,03,57,2.10
2013,04,30,03,58,2.00
2013,04,30,03,59,2.00
2013,04,30,04,00,2.00
2013,04,30,04,01,2.00
2013,04,30,04,02,2.00
2013,04,30,04,03,1.90
2013,04,30,04,04,1.90
2013,04,30,04,05,1.90
2013,04,30,04,06,1.90
2013,04,30,04,07,1.90
2013,04,30,04,08,1.90
2013,04,30,04,09,1.80
2013,04,30,04,10,1.80
2013,04,30,04,11,1.80
2013,04,30,04,12,1.80
2013,04,30,04,13,1.70
2013,04,30,04,14,1.70
2013,04,30,04,15,1.70
2013,04,30,04,16,1.70
2013,04,30,04,17,1.70
2013,04,30,04,18,1.70
2013,04,30,04,19,1.70
2013,04,30,04,20,1.70
2013,04,30,04,21,1.70
2013,04,30,04,22,1.70
2013,04,30,04,23,1.70
2013,04,30,04,24,1.70
2013,04,30,04,25,1.70
2013,04,30,04,26,1.70
2013,04,30,04,27,1.70
2013,04,30,04,28,1.60
2013,04,30,04,29,1.60
2013,04,30,04,30,1.60
2013,04,30,04,31,1.60
2013,04,30,04,32,1.60
2013,04,30,04,33,1.60
2013,04,30,04,34,1.50
2013,04,30,04,35,1.50
2013,04,30,04,36,1.50
2013,04,30,04,37,1.50
2013,04,30,04,38,1.50
2013,04,30,04,39,1.50
2013,04,30,04,40,1.40
2013,04,30,04,41,1.40
2013,04,30,04,42,1.40
2013,04,30,04,43,1.40
2013,04,30,04,44,1.40
2013,04,30,04,45,1.40
2013,04,30,04,46,1.40
2013,04,30,04,47,1.30
2013,04,30,04,48,1.30
2013,04,30,04,49,1.30
2013,04,30,04,50,1.30
2013,04,30,04,51,1.30
2013,04,30,04,52,1.30
2013,04,30,04,53,1.30
2013,04,30,04,54,1.30
2013,04,30,04,55,1.30
2013,04,30,04,56,1.30
2013,04,30,04,57,1.30
2013,04,30,04,58,1.30
2013,04,30,04,59,1.30
2013,04,30,05,00,1.30
2013,04,30,05,01,1.30
2013,04,30,05,02,1.20
2013,04,30,05,03,1.20
2013,04,30,05,04,1.20
2013,04,30,05,05,1.20
2013,04,30,05,06,1.20
2013,04,30,05,07,1.20
2013,04,30,05,08,1.10
2013,04,30,05,09,1.10
2013,04,30,05,10,1.10
2013,04,30,05,11,1.10
2013,04,30,05,12,1.10
2013,04,30,05,13,1.00
2013,04,30,05,14,1.00
2013,04,30,05,15,1.00
2013,04,30,05,16,1.00
2013,04,30,05,17,0.90
2013,04,30,05,18,0.90
2013,04,30,05,19,0.90
2013,04,30,05,20,0.90
2013,04,30,05,21,0.90
2013,04,30,05,22,0.90
2013,04,30,05,23,0.90
2013,04,30,05,24,0.90
2013,04,30,05,25,0.80
2013,04,30,05,26,0.80
2013,04,30,05,27,0.80
2013,04,30,05,28,0.80
2013,04,30,05,29,0.80
2013,04,30,05,30,0.80
2013,04,30,05,31,0.70
2013,04,30,05,32,0.70
2013,04,30,05,33,0.70
2013,04,30,05,34,0.70
2013,04,30,05,35,0.70
2013,04,30,05,36,0.70
2013,04,30,05,37,0.70
2013,04,30,05,38,0.70
2013,04,30,05,39,0.70
2013,04,30,05,40,0.70
2013,04,30,05,41,0.70
2013,04,30,05,42,0.70
2013,04,30,05,43,0.70
2013,04,30,05,44,0.70
2013,04,30,05,45,0.70
2013,04,30,05,46,0.70
2013,04,30,05,47,0.70
2013,04,30,05,48,0.70
2013,04,30,05,49,0.70
2013,04,30,05,50,0.60
2013,04,30,05,51,0.60
2013,04,30,05,52,0.60
2013,04,30,05,53,0.60
2013,04,30,05,54,0.60
2013,04,30,05,55,0.60
2013,04,30,05,56,0.50
2013,04,30,05,57,0.50
2013,04,30,05,58,0.50
2013,04,30,05,59,0.40
2013,04,30,06,00,0.40
2013,04,30,06,01,0.40
2013,04,30,06,02,0.40
2013,04,30,06,03,0.40
2013,04,30,06,04,0.40
2013,04,30,06,05,0.40
2013,04,30,06,06,0.40
2013,04,30,06,07,0.40
2013,04,30,06,08,0.40
2013,04,30,06,09,0.40
2013,04,30,06,10,0.40
2013,04,30,06,11,0.40
2013,04,30,06,12,0.40
2013,04,30,06,13,0.40
2013,04,30,06,14,0.30
2013,04,30,06,15,0.30
2013,04,30,06,16,0.30
2013,04,30,06,17,0.30
2013,04,30,06,18,0.30
2013,04,30,06,19,0.30
2013,04,30,06,20,0.30
2013,04,30,06,21,0.30
2013,04,30,06,22,0.30
2013,04,30,06,23,0.30
2013,04,30,06,24,0.40
2013,04,30,06,25,0.40
2013,04,30,06,26,0.40
2013,04,30,06,27,0.40
2013,04,30,06,28,0.40
2013,04,30,06,29,0.40
2013,04,30,06,30,0.40
2013,04,30,06,31,0.30
2013,04,30,06,32,0.30
2013,04,30,06,33,0.30
2013,04,30,06,34,0.30
2013,04,30,06,35,0.30
2013,04,30,06,36,0.30
2013,04,30,06,37,0.30
2013,04,30,06,38,0.30
2013,04,30,06,39,0.30
2013,04,30,06,40,0.30
2013,04,30,06,41,0.30
2013,04,30,06,42,0.30
2013,04,30,06,43,0.30
2013,04,30,06,44,0.30
2013,04,30,06,45,0.30
2013,04,30,06,46,0.30
2013,04,30,06,47,0.30
2013,04,30,06,48,0.30
2013,04,30,06,49,0.30
2013,04,30,06,50,0.30
2013,04,30,06,51,0.30
2013,04,30,06,52,0.30
2013,04,30,06,53,0.30
2013,04,30,06,54,0.30
2013,04,30,06,55,0.30
2013,04,30,06,56,0.30
2013,04,30,06,57,0.30
2013,04,30,06,58,0.40
2013,04,30,06,59,0.40
2013,04,30,07,00,0.40
2013,04,30,07,01,0.40
2013,04,30,07,02,0.40
2013,04,30,07,03,0.50
2013,04,30,07,04,0.50
2013,04,30,07,05,0.60
2013,04,30,07,06,0.60
2013,04,30,07,07,0.60
2013,04,30,07,08,0.70
2013,04,30,07,09,0.70
2013,04,30,07,10,0.70
2013,04,30,07,11,0.70
2013,04,30,07,12,0.80
2013,04,30,07,13,0.80
2013,04,30,07,14,0.80
2013,04,30,07,15,0.80
2013,04,30,07,16,0.80
2013,04,30,07,17,0.80
2013,04,30,07,18,0.90
2013,04,30,07,19,0.90
2013,04,30,07,20,0.90
2013,04,30,07,21,0.90
2013,04,30,07,22,0.90
2013,04,30,07,23,0.90
2013,04,30,07,24,1.00
2013,04,30,07,25,1.00
2013,04,30,07,26,1.10
2013,04,30,07,27,1.10
2013,04,30,07,28,1.20
2013,04,30,07,29,1.20
2013,04,30,07,30,1.30
2013,04,30,07,31,1.40
2013,04,30,07,32,1.40
2013,04,30,07,33,1.50
2013,04,30,07,34,1.60
2013,04,30,07,35,1.70
2013,04,30,07,36,1.80
2013,04,30,07,37,1.80
2013,04,30,07,38,1.90
2013,04,30,07,39,2.00
2013,04,30,07,40,2.10
2013,04,30,07,41,2.10
2013,04,30,07,42,2.20
2013,04,30,07,43,2.30
2013,04,30,07,44,2.30
2013,04,30,07,45,2.40
2013,04,30,07,46,2.50
2013,04,30,07,47,2.60
2013,04,30,07,48,2.70
2013,04,30,07,49,2.80
2013,04,30,07,50,2.80
2013,04,30,07,51,2.80
2013,04,30,07,52,2.90
2013,04,30,07,53,3.00
2013,04,30,07,54,3.00
2013,04,30,07,55,3.10
2013,04,30,07,56,3.10
2013,04,30,07,57,3.10
2013,04,30,07,58,3.10
2013,04,30,07,59,3.10
2013,04,30,08,00,3.50
2013,04,30,08,01,3.50
2013,04,30,08,02,3.60
2013,04,30,08,03,3.60
2013,04,30,08,04,3.70
2013,04,30,08,05,3.70
2013,04,30,08,06,3.80
2013,04,30,08,07,3.80
2013,04,30,08,08,3.90
2013,04,30,08,09,4.00
2013,04,30,08,10,4.00
2013,04,30,08,11,4.10
2013,04,30,08,12,4.20
2013,04,30,08,13,4.20
2013,04,30,08,14,4.30
2013,04,30,08,15,4.30
2013,04,30,08,16,4.40
2013,04,30,08,17,4.40
2013,04,30,08,18,4.40
2013,04,30,08,19,4.40
2013,04,30,08,20,4.40
2013,04,30,08,21,4.40
2013,04,30,08,22,4.40
2013,04,30,08,23,4.50
2013,04,30,08,24,4.60
2013,04,30,08,25,4.70
2013,04,30,08,26,4.70
2013,04,30,08,27,4.70
2013,04,30,08,28,4.80
2013,04,30,08,29,4.80
2013,04,30,08,30,4.80
2013,04,30,08,31,4.80
2013,04,30,08,32,4.80
2013,04,30,08,33,4.80
2013,04,30,08,34,4.80
2013,04,30,08,35,4.80
2013,04,30,08,36,4.80
2013,04,30,08,37,4.80
2013,04,30,08,38,4.90
2013,04,30,08,39,4.90
2013,04,30,08,40,4.90
2013,04,30,08,41,5.00
2013,04,30,08,42,5.10
2013,04,30,08,43,5.20
2013,04,30,08,44,5.20
2013,04,30,08,45,5.20
2013,04,30,08,46,5.30
2013,04,30,08,47,5.40
2013,04,30,08,48,5.60
2013,04,30,08,49,5.70
2013,04,30,08,50,5.80
2013,04,30,08,51,5.90
2013,04,30,08,52,6.00
2013,04,30,08,53,6.10
2013,04,30,08,54,6.20
2013,04,30,08,55,6.20
2013,04,30,08,56,6.20
2013,04,30,08,57,6.20
2013,04,30,08,58,6.20
2013,04,30,08,59,6.20
2013,04,30,09,00,6.30
2013,04,30,09,01,6.30
2013,04,30,09,02,6.30
2013,04,30,09,03,6.40
2013,04,30,09,04,6.40
2013,04,30,09,05,6.50
2013,04,30,09,06,6.50
2013,04,30,09,07,6.50
2013,04,30,09,08,6.50
2013,04,30,09,09,6.50
2013,04,30,09,10,6.50
2013,04,30,09,11,6.50
2013,04,30,09,12,6.40
2013,04,30,09,13,6.40
2013,04,30,09,14,6.40
2013,04,30,09,15,6.50
2013,04,30,09,16,6.50
2013,04,30,09,17,6.60
2013,04,30,09,18,6.60
2013,04,30,09,19,6.70
2013,04,30,09,20,6.70
2013,04,30,09,21,6.70
2013,04,30,09,22,6.60
2013,04,30,09,23,6.60
2013,04,30,09,24,6.60
2013,04,30,09,25,6.60
2013,04,30,09,26,6.60
2013,04,30,09,27,6.70
2013,04,30,09,28,6.70
2013,04,30,09,29,6.80
2013,04,30,09,30,6.90
2013,04,30,09,31,7.00
2013,04,30,09,32,7.10
2013,04,30,09,33,7.20
2013,04,30,09,34,7.30
2013,04,30,09,35,7.40
2013,04,30,09,36,7.50
2013,04,30,09,37,7.60
2013,04,30,09,38,7.60
2013,04,30,09,39,7.70
2013,04,30,09,40,7.80
2013,04,30,09,41,7.90
2013,04,30,09,42,8.00
2013,04,30,09,43,8.10
2013,04,30,09,44,8.10
2013,04,30,09,45,8.10
2013,04,30,09,46,8.00
2013,04,30,09,47,8.00
2013,04,30,09,48,7.90
2013,04,30,09,49,7.80
2013,04,30,09,50,7.80
2013,04,30,09,51,7.80
2013,04,30,09,52,7.90
2013,04,30,09,53,7.90
2013,04,30,09,54,7.90
2013,04,30,09,55,7.90
2013,04,30,09,56,7.80
2013,04,30,09,57,7.90
2013,04,30,09,58,7.90
2013,04,30,09,59,7.90
2013,04,30,10,00,8.00
2013,04,30,10,01,8.10
2013,04,30,10,02,8.30
2013,04,30,10,03,8.30
2013,04,30,10,04,8.40
2013,04,30,10,05,8.40
2013,04,30,10,06,8.30
2013,04,30,10,07,8.30
2013,04,30,10,08,8.30
2013,04,30,10,09,8.30
2013,04,30,10,10,8.30
2013,04,30,10,11,8.30
2013,04,30,10,12,8.40
2013,04,30,10,13,8.50
2013,04,30,10,14,8.60
2013,04,30,10,15,8.60
2013,04,30,10,16,8.60
2013,04,30,10,17,8.60
2013,04,30,10,18,8.70
2013,04,30,10,19,8.70
2013,04,30,10,20,8.70
2013,04,30,10,21,8.70
2013,04,30,10,22,8.70
2013,04,30,10,23,8.80
2013,04,30,10,24,8.80
2013,04,30,10,25,8.90
2013,04,30,10,26,8.90
2013,04,30,10,27,8.90
2013,04,30,10,28,8.90
2013,04,30,10,29,8.90
2013,04,30,10,30,9.00
2013,04,30,10,31,9.00
2013,04,30,10,32,9.10
2013,04,30,10,33,9.10
2013,04,30,10,34,9.20
2013,04,30,10,35,9.20
2013,04,30,10,36,9.30
2013,04,30,10,37,9.30
2013,04,30,10,38,9.30
2013,04,30,10,39,9.30
2013,04,30,10,40,9.20
2013,04,30,10,41,9.20
2013,04,30,10,42,9.20
2013,04,30,10,43,9.20
2013,04,30,10,44,9.20
2013,04,30,10,45,9.20
2013,04,30,10,46,9.20
2013,04,30,10,47,9.20
2013,04,30,10,48,9.20
2013,04,30,10,49,9.30
2013,04,30,10,50,9.20
2013,04,30,10,51,9.20
2013,04,30,10,52,9.20
2013,04,30,10,53,9.20
2013,04,30,10,54,9.30
2013,04,30,10,55,9.30
2013,04,30,10,56,9.30
2013,04,30,10,57,9.30
2013,04,30,10,58,9.30
2013,04,30,10,59,9.30
2013,04,30,11,00,9.40
2013,04,30,11,01,9.40
2013,04,30,11,02,9.50
2013,04,30,11,03,9.60
2013,04,30,11,04,9.70
2013,04,30,11,05,9.70
2013,04,30,11,06,9.80
2013,04,30,11,07,9.80
2013,04,30,11,08,9.80
2013,04,30,11,09,9.80
2013,04,30,11,10,9.80
2013,04,30,11,11,9.80
2013,04,30,11,12,9.80
2013,04,30,11,13,9.80
2013,04,30,11,14,9.80
2013,04,30,11,15,9.70
2013,04,30,11,16,9.70
2013,04,30,11,17,9.70
2013,04,30,11,18,9.70
2013,04,30,11,19,9.70
2013,04,30,11,20,9.80
2013,04,30,11,21,9.80
2013,04,30,11,22,9.80
2013,04,30,11,23,9.80
2013,04,30,11,24,9.90
2013,04,30,11,25,9.90
2013,04,30,11,26,10.00
2013,04,30,11,27,10.10
2013,04,30,11,28,10.20
2013,04,30,11,29,10.20
2013,04,30,11,30,10.20
2013,04,30,11,31,10.20
2013,04,30,11,32,10.20
2013,04,30,11,33,10.20
2013,04,30,11,34,10.20
2013,04,30,11,35,10.20
2013,04,30,11,36,10.10
2013,04,30,11,37,10.10
2013,04,30,11,38,10.10
2013,04,30,11,39,10.20
2013,04,30,11,40,10.20
2013,04,30,11,41,10.20
2013,04,30,11,42,10.20
2013,04,30,11,43,10.10
2013,04,30,11,44,10.00
2013,04,30,11,45,10.00
2013,04,30,11,46,9.90
2013,04,30,11,47,9.90
2013,04,30,11,48,9.80
2013,04,30,11,49,9.90
2013,04,30,11,50,10.00
2013,04,30,11,51,10.10
2013,04,30,11,52,10.30
2013,04,30,11,53,10.40
2013,04,30,11,54,10.60
2013,04,30,11,55,10.70
2013,04,30,11,56,10.80
2013,04,30,11,57,10.90
2013,04,30,11,58,10.90
2013,04,30,11,59,10.90
2013,04,30,12,00,10.90
2013,04,30,12,01,10.90
2013,04,30,12,02,11.00
2013,04,30,12,03,11.00
2013,04,30,12,04,10.90
2013,04,30,12,05,10.90
2013,04,30,12,06,10.90
2013,04,30,12,07,10.80
2013,04,30,12,08,10.80
2013,04,30,12,09,10.80
2013,04,30,12,10,10.80
2013,04,30,12,11,10.70
2013,04,30,12,12,10.70
2013,04,30,12,13,10.70
2013,04,30,12,14,10.70
2013,04,30,12,15,10.60
2013,04,30,12,16,10.60
2013,04,30,12,17,10.70
2013,04,30,12,18,10.70
2013,04,30,12,19,10.70
2013,04,30,12,20,10.80
2013,04,30,12,21,10.80
2013,04,30,12,22,10.90
2013,04,30,12,23,10.90
2013,04,30,12,24,11.00
2013,04,30,12,25,11.10
2013,04,30,12,26,11.20
2013,04,30,12,27,11.20
2013,04,30,12,28,11.40
2013,04,30,12,29,11.40
2013,04,30,12,30,11.50
2013,04,30,12,31,11.60
2013,04,30,12,32,11.60
2013,04,30,12,33,11.70
2013,04,30,12,34,11.80
2013,04,30,12,35,11.70
2013,04,30,12,36,11.50
2013,04,30,12,37,11.40
2013,04,30,12,38,11.30
2013,04,30,12,39,11.30
2013,04,30,12,40,11.20
2013,04,30,12,41,11.20
2013,04,30,12,42,11.20
2013,04,30,12,43,11.20
2013,04,30,12,44,11.20
2013,04,30,12,45,11.20
2013,04,30,12,46,11.30
2013,04,30,12,47,11.30
2013,04,30,12,48,11.40
2013,04,30,12,49,11.50
2013,04,30,12,50,11.50
2013,04,30,12,51,11.50
2013,04,30,12,52,11.60
2013,04,30,12,53,11.60
2013,04,30,12,54,11.80
2013,04,30,12,55,11.90
2013,04,30,12,56,12.00
2013,04,30,12,57,12.10
2013,04,30,12,58,12.10
2013,04,30,12,59,12.10
2013,04,30,13,00,12.10
2013,04,30,13,01,12.20
2013,04,30,13,02,12.30
2013,04,30,13,03,12.40
2013,04,30,13,04,12.50
2013,04,30,13,05,12.60
2013,04,30,13,06,12.60
2013,04,30,13,07,12.60
2013,04,30,13,08,12.60
2013,04,30,13,09,12.50
2013,04,30,13,10,12.40
2013,04,30,13,11,12.40
2013,04,30,13,12,12.40
2013,04,30,13,13,12.40
2013,04,30,13,14,12.40
2013,04,30,13,15,12.40
2013,04,30,13,16,12.40
2013,04,30,13,17,12.50
2013,04,30,13,18,12.60
2013,04,30,13,19,12.70
2013,04,30,13,20,12.70
2013,04,30,13,21,12.70
2013,04,30,13,22,12.80
2013,04,30,13,23,12.90
2013,04,30,13,24,13.00
2013,04,30,13,25,13.00
2013,04,30,13,26,13.00
2013,04,30,13,27,12.90
2013,04,30,13,28,12.90
2013,04,30,13,29,12.80
2013,04,30,13,30,12.80
2013,04,30,13,31,12.70
2013,04,30,13,32,12.60
2013,04,30,13,33,12.60
2013,04,30,13,34,12.50
2013,04,30,13,35,12.40
2013,04,30,13,36,12.30
2013,04,30,13,37,12.20
2013,04,30,13,38,12.20
2013,04,30,13,39,12.20
2013,04,30,13,40,12.20
2013,04,30,13,41,12.20
2013,04,30,13,42,12.30
2013,04,30,13,43,12.40
2013,04,30,13,44,12.40
2013,04,30,13,45,12.50
2013,04,30,13,46,12.50
2013,04,30,13,47,12.60
2013,04,30,13,48,12.70
2013,04,30,13,49,12.80
2013,04,30,13,50,12.80
2013,04,30,13,51,12.90
2013,04,30,13,52,12.90
2013,04,30,13,53,13.00
2013,04,30,13,54,13.10
2013,04,30,13,55,13.10
2013,04,30,13,56,13.10
2013,04,30,13,57,13.00
2013,04,30,13,58,13.00
2013,04,30,13,59,12.90
2013,04,30,14,00,12.90
2013,04,30,14,01,12.90
2013,04,30,14,02,12.90
2013,04,30,14,03,13.00
2013,04,30,14,04,13.00
2013,04,30,14,05,13.00
2013,04,30,14,06,13.00
2013,04,30,14,07,13.10
2013,04,30,14,08,13.10
2013,04,30,14,09,13.00
2013,04,30,14,10,13.00
2013,04,30,14,11,12.90
2013,04,30,14,12,12.90
2013,04,30,14,13,13.00
2013,04,30,14,14,13.10
2013,04,30,14,15,13.00
2013,04,30,14,16,13.00
2013,04,30,14,17,13.00
2013,04,30,14,18,12.90
2013,04,30,14,19,12.90
2013,04,30,14,20,12.90
2013,04,30,14,21,12.90
2013,04,30,14,22,12.90
2013,04,30,14,23,12.90
2013,04,30,14,24,13.00
2013,04,30,14,25,13.10
2013,04,30,14,26,13.20
2013,04,30,14,27,13.30
2013,04,30,14,28,13.40
2013,04,30,14,29,13.50
2013,04,30,14,30,13.50
2013,04,30,14,31,13.50
2013,04,30,14,32,13.50
2013,04,30,14,33,13.40
2013,04,30,14,34,13.30
2013,04,30,14,35,13.40
2013,04,30,14,36,13.40
2013,04,30,14,37,13.40
2013,04,30,14,38,13.50
2013,04,30,14,39,13.40
2013,04,30,14,40,13.40
2013,04,30,14,41,13.30
2013,04,30,14,42,13.30
2013,04,30,14,43,13.40
2013,04,30,14,44,13.50
2013,04,30,14,45,13.50
2013,04,30,14,46,13.70
2013,04,30,14,47,13.70
2013,04,30,14,48,13.80
2013,04,30,14,49,13.80
2013,04,30,14,50,13.80
2013,04,30,14,51,13.80
2013,04,30,14,52,13.80
2013,04,30,14,53,13.80
2013,04,30,14,54,13.80
2013,04,30,14,55,13.70
2013,04,30,14,56,13.70
2013,04,30,14,57,13.80
2013,04,30,14,58,13.80
2013,04,30,14,59,13.80
2013,04,30,15,00,13.80
2013,04,30,15,01,13.90
2013,04,30,15,02,13.90
2013,04,30,15,03,14.00
2013,04,30,15,04,14.10
2013,04,30,15,05,14.20
2013,04,30,15,06,14.30
2013,04,30,15,07,14.40
2013,04,30,15,08,14.40
2013,04,30,15,09,14.40
2013,04,30,15,10,14.40
2013,04,30,15,11,14.40
2013,04,30,15,12,14.20
2013,04,30,15,13,14.20
2013,04,30,15,14,14.10
2013,04,30,15,15,14.10
2013,04,30,15,16,14.00
2013,04,30,15,17,14.10
2013,04,30,15,18,14.10
2013,04,30,15,19,14.20
2013,04,30,15,20,14.30
2013,04,30,15,21,14.40
2013,04,30,15,22,14.50
2013,04,30,15,23,14.60
2013,04,30,15,24,14.50
2013,04,30,15,25,14.40
2013,04,30,15,26,14.30
2013,04,30,15,27,14.20
2013,04,30,15,28,14.10
2013,04,30,15,29,14.10
2013,04,30,15,30,14.10
2013,04,30,15,31,14.10
2013,04,30,15,32,14.10
2013,04,30,15,33,14.10
2013,04,30,15,34,14.20
2013,04,30,15,35,14.30
2013,04,30,15,36,14.30
2013,04,30,15,37,14.30
2013,04,30,15,38,14.40
2013,04,30,15,39,14.40
2013,04,30,15,40,14.50
2013,04,30,15,41,14.60
2013,04,30,15,42,14.70
2013,04,30,15,43,14.80
2013,04,30,15,44,14.90
2013,04,30,15,45,15.00
2013,04,30,15,46,15.00
2013,04,30,15,47,15.00
2013,04,30,15,48,14.90
2013,04,30,15,49,14.90
2013,04,30,15,50,14.90
2013,04,30,15,51,14.90
2013,04,30,15,52,14.90
2013,04,30,15,53,14.90
2013,04,30,15,54,15.00
2013,04,30,15,55,15.00
2013,04,30,15,56,14.90
2013,04,30,15,57,14.90
2013,04,30,15,58,14.80
2013,04,30,15,59,14.80
2013,04,30,16,00,14.80
2013,04,30,16,01,14.70
2013,04,30,16,02,14.60
2013,04,30,16,03,14.50
2013,04,30,16,04,14.50
2013,04,30,16,05,14.50
2013,04,30,16,06,14.60
2013,04,30,16,07,14.60
2013,04,30,16,08,14.50
2013,04,30,16,09,14.50
2013,04,30,16,10,14.40
2013,04,30,16,11,14.40
2013,04,30,16,12,14.50
2013,04,30,16,13,14.50
2013,04,30,16,14,14.60
2013,04,30,16,15,14.70
2013,04,30,16,16,14.70
2013,04,30,16,17,14.80
2013,04,30,16,18,14.80
2013,04,30,16,19,14.80
2013,04,30,16,20,14.80
2013,04,30,16,21,14.80
2013,04,30,16,22,14.80
2013,04,30,16,23,14.80
2013,04,30,16,24,14.80
2013,04,30,16,25,14.80
2013,04,30,16,26,14.80
2013,04,30,16,27,14.80
2013,04,30,16,28,14.90
2013,04,30,16,29,14.90
2013,04,30,16,30,14.90
2013,04,30,16,31,14.90
2013,04,30,16,32,14.80
2013,04,30,16,33,14.80
2013,04,30,16,34,14.90
2013,04,30,16,35,14.90
2013,04,30,16,36,14.90
2013,04,30,16,37,14.90
2013,04,30,16,38,14.90
2013,04,30,16,39,14.80
2013,04,30,16,40,14.70
2013,04,30,16,41,14.70
2013,04,30,16,42,14.60
2013,04,30,16,43,14.50
2013,04,30,16,44,14.40
2013,04,30,16,45,14.30
2013,04,30,16,46,14.30
2013,04,30,16,47,14.40
2013,04,30,16,48,14.40
2013,04,30,16,49,14.50
2013,04,30,16,50,14.50
2013,04,30,16,51,14.50
2013,04,30,16,52,14.40
2013,04,30,16,53,14.30
2013,04,30,16,54,14.30
2013,04,30,16,55,14.30
2013,04,30,16,56,14.20
2013,04,30,16,57,14.20
2013,04,30,16,58,14.00
2013,04,30,16,59,14.00
2013,04,30,17,00,13.90
2013,04,30,17,01,13.90
2013,04,30,17,02,13.90
2013,04,30,17,03,13.80
2013,04,30,17,04,13.80
2013,04,30,17,05,13.80
2013,04,30,17,06,13.80
2013,04,30,17,07,13.90
2013,04,30,17,08,13.90
2013,04,30,17,09,13.90
2013,04,30,17,10,13.90
2013,04,30,17,11,13.90
2013,04,30,17,12,13.80
2013,04,30,17,13,13.80
2013,04,30,17,14,13.80
2013,04,30,17,15,13.80
2013,04,30,17,16,13.80
2013,04,30,17,17,13.80
2013,04,30,17,18,13.80
2013,04,30,17,19,13.70
2013,04,30,17,20,13.70
2013,04,30,17,21,13.70
2013,04,30,17,22,13.80
2013,04,30,17,23,13.80
2013,04,30,17,24,13.80
2013,04,30,17,25,13.80
2013,04,30,17,26,13.80
2013,04,30,17,27,13.80
2013,04,30,17,28,13.80
2013,04,30,17,29,13.90
2013,04,30,17,30,13.90
2013,04,30,17,31,13.90
2013,04,30,17,32,13.90
2013,04,30,17,33,13.90
2013,04,30,17,34,13.90
2013,04,30,17,35,13.90
2013,04,30,17,36,13.80
2013,04,30,17,37,13.80
2013,04,30,17,38,13.80
2013,04,30,17,39,13.80
2013,04,30,17,40,13.70
2013,04,30,17,41,13.70
2013,04,30,17,42,13.70
2013,04,30,17,43,13.70
2013,04,30,17,44,13.70
2013,04,30,17,45,13.70
2013,04,30,17,46,13.70
2013,04,30,17,47,13.60
2013,04,30,17,48,13.60
2013,04,30,17,49,13.60